Pampa, TX

3:14 AM CDT on September 24, 2017 (GMT -0500)
Perry Lefors

Weather History for KPPA - November, 2012

Change the Weather History Date:

Tuesday, November 6, 2012

  Actual Average Record
Temperature  
Mean Temperature 56 °F -  
Max Temperature 71 °F 62 °F 78 °F (2004)
Min Temperature 41 °F 35 °F 18 °F (1993)
Degree Days  
Heating Degree Days 9    
Growing Degree Days 6 (Base 50)    
Moisture  
Dew Point 31 °F    
Average Humidity 43    
Maximum Humidity 65    
Minimum Humidity 23    
Precipitation  
Precipitation 0.00 in - - ()
Sea Level Pressure  
Sea Level Pressure 30.18 in    
Wind  
Wind Speed 11 mph (North)    
Max Wind Speed 15 mph    
Max Gust Speed 21 mph    
Visibility 10 miles    
Events      
Averages and records for this station are not official NWS values.
T = Trace of Precipitation, MM = Missing Value Source: NWS Daily Summary

Daily Weather History Graph

Daily Weather History Graph

Search for Another Location

Airport or City:

Trip Planner

Search our weather history database for the weather conditions in past years. The results will help you decide how hot, cold, wet, or windy it might be!

Date:

Astronomy

Nov. 06, 2012 Rise Set
Actual Time 7:11 AM CST 5:43 PM CST
Civil Twilight 6:44 AM CST 6:10 PM CST
Nautical Twilight 6:14 AM CST 6:40 PM CST
Astronomical Twilight 5:44 AM CST 7:10 PM CST
Moon No Moon Rise 1:06 PM CST (11/6)
Length of Visible Light 11h 25m
Length of Day
10h 32m
Waning Gibbous, 53% of the Moon is Illuminated
Nov 6
Waning Gibbous
Nov 6
Last Quarter
Nov 13
New
Nov 20
First Quarter
Nov 28
Full

Hourly Weather History & Observations

Time (CST) Temp. Windchill Dew Point Humidity Pressure Visibility Wind Dir Wind Speed Gust Speed Precip Events Conditions
12:15 AM 42.8 °F 36.6 °F 30.2 °F 61% 30.14 in 10.0 mi South 11.5 mph - N/A   Clear
12:35 AM 44.6 °F 38.1 °F 30.2 °F 57% 30.14 in 10.0 mi SSW 13.8 mph - N/A   Clear
12:55 AM 44.6 °F 38.8 °F 30.2 °F 57% 30.13 in 10.0 mi SSW 11.5 mph - N/A   Clear
1:15 AM 46.4 °F 40.1 °F 30.2 °F 53% 30.13 in 10.0 mi SSW 15.0 mph - N/A   Clear
1:35 AM 46.4 °F 40.4 °F 30.2 °F 53% 30.13 in 10.0 mi SSW 13.8 mph - N/A   Clear
1:55 AM 44.6 °F 38.1 °F 30.2 °F 57% 30.13 in 10.0 mi SSW 13.8 mph - N/A   Clear
2:15 AM 44.6 °F 38.4 °F 30.2 °F 57% 30.14 in 10.0 mi SSW 12.7 mph - N/A   Clear
2:35 AM 44.6 °F 38.1 °F 30.2 °F 57% 30.14 in 10.0 mi SSW 13.8 mph - N/A   Clear
2:55 AM 44.6 °F 38.8 °F 30.2 °F 57% 30.14 in 10.0 mi SSW 11.5 mph - N/A   Clear
3:15 AM 44.6 °F 39.2 °F 30.2 °F 57% 30.14 in 10.0 mi SW 10.4 mph - N/A   Clear
3:35 AM 42.8 °F 37.0 °F 30.2 °F 61% 30.14 in 10.0 mi WSW 10.4 mph - N/A   Clear
3:55 AM 41.0 °F 35.2 °F 30.2 °F 65% 30.14 in 10.0 mi West 9.2 mph - N/A   Clear
4:15 AM 42.8 °F 37.5 °F 30.2 °F 61% 30.14 in 10.0 mi West 9.2 mph - N/A   Clear
4:35 AM 42.8 °F 37.5 °F 30.2 °F 61% 30.14 in 10.0 mi West 9.2 mph - N/A   Clear
4:55 AM 42.8 °F 37.0 °F 30.2 °F 61% 30.14 in 10.0 mi West 10.4 mph - N/A   Clear
5:15 AM 42.8 °F 37.0 °F 30.2 °F 61% 30.13 in 10.0 mi West 10.4 mph - N/A   Clear
5:35 AM 44.6 °F 39.2 °F 30.2 °F 57% 30.13 in 10.0 mi West 10.4 mph - N/A   Clear
5:55 AM 42.8 °F 37.0 °F 30.2 °F 61% 30.13 in 10.0 mi West 10.4 mph - N/A   Clear
6:15 AM 42.8 °F 37.0 °F 30.2 °F 61% 30.13 in 10.0 mi West 10.4 mph - N/A   Clear
6:35 AM 42.8 °F 37.0 °F 30.2 °F 61% 30.14 in 10.0 mi West 10.4 mph - N/A   Clear
6:55 AM 42.8 °F 36.2 °F 30.2 °F 61% 30.14 in 10.0 mi West 12.7 mph - N/A   Clear
7:15 AM 44.6 °F 38.8 °F 30.2 °F 57% 30.15 in 10.0 mi West 11.5 mph - N/A   Clear
7:35 AM 44.6 °F 39.2 °F 28.4 °F 53% 30.16 in 10.0 mi West 10.4 mph - N/A   Clear
7:55 AM 46.4 °F 41.5 °F 30.2 °F 53% 30.16 in 10.0 mi West 10.4 mph - N/A   Clear
8:15 AM 50.0 °F - 30.2 °F 47% 30.17 in 10.0 mi West 10.4 mph - N/A   Clear
8:35 AM 51.8 °F - 28.4 °F 41% 30.18 in 10.0 mi West 9.2 mph - N/A   Clear
8:55 AM 55.4 °F - 28.4 °F 36% 30.19 in 10.0 mi West 10.4 mph - N/A   Clear
9:15 AM 57.2 °F - 28.4 °F 33% 30.19 in 10.0 mi WNW 9.2 mph - N/A   Clear
9:35 AM 59.0 °F - 28.4 °F 31% 30.19 in 10.0 mi WNW 11.5 mph - N/A   Clear
9:55 AM 60.8 °F - 28.4 °F 29% 30.21 in 10.0 mi NNW 10.4 mph - N/A   Clear
10:15 AM 64.4 °F - 30.2 °F 28% 30.21 in 10.0 mi North 12.7 mph - N/A   Clear
10:35 AM 64.4 °F - 30.2 °F 28% 30.22 in 10.0 mi North 15.0 mph 18.4 mph N/A   Clear
10:55 AM 64.4 °F - 30.2 °F 28% 30.22 in 10.0 mi North 13.8 mph 18.4 mph N/A   Clear
11:15 AM 66.2 °F - 32.0 °F 28% 30.21 in 10.0 mi NNE 11.5 mph - N/A   Clear
11:35 AM 68.0 °F - 32.0 °F 26% 30.21 in 10.0 mi North 15.0 mph 20.7 mph N/A   Clear
11:55 AM 68.0 °F - 32.0 °F 26% 30.21 in 10.0 mi North 13.8 mph 20.7 mph N/A   Clear
12:15 PM 68.0 °F - 32.0 °F 26% 30.21 in 10.0 mi North 11.5 mph 17.3 mph N/A   Clear
12:35 PM 69.8 °F - 32.0 °F 25% 30.19 in 10.0 mi NNE 15.0 mph 20.7 mph N/A   Clear
12:55 PM 69.8 °F - 32.0 °F 25% 30.18 in 10.0 mi North 13.8 mph - N/A   Clear
1:15 PM 69.8 °F - 32.0 °F 25% 30.18 in 10.0 mi NNE 13.8 mph 18.4 mph N/A   Clear
1:35 PM 69.8 °F - 32.0 °F 25% 30.18 in 10.0 mi North 9.2 mph - N/A   Clear
1:55 PM 69.8 °F - 32.0 °F 25% 30.18 in 10.0 mi NNE 10.4 mph 16.1 mph N/A   Clear
2:15 PM 69.8 °F - 33.8 °F 27% 30.18 in 10.0 mi NNE 10.4 mph - N/A   Clear
2:35 PM 69.8 °F - 33.8 °F 27% 30.17 in 10.0 mi NE 6.9 mph 17.3 mph N/A   Clear
2:55 PM 71.6 °F - 32.0 °F 23% 30.17 in 10.0 mi North 8.1 mph 17.3 mph N/A   Clear
3:15 PM 69.8 °F - 32.0 °F 25% 30.17 in 10.0 mi North 10.4 mph - N/A   Clear
3:35 PM 69.8 °F - 32.0 °F 25% 30.18 in 10.0 mi North 6.9 mph - N/A   Clear
3:55 PM 69.8 °F - 32.0 °F 25% 30.17 in 10.0 mi North 8.1 mph - N/A   Clear
4:15 PM 69.8 °F - 32.0 °F 25% 30.18 in 10.0 mi NE 6.9 mph - N/A   Clear
4:35 PM 69.8 °F - 32.0 °F 25% 30.18 in 10.0 mi NNE 8.1 mph - N/A   Clear
4:55 PM 68.0 °F - 32.0 °F 26% 30.18 in 10.0 mi NE 5.8 mph - N/A   Clear
5:15 PM 68.0 °F - 32.0 °F 26% 30.19 in 10.0 mi NNE 5.8 mph - N/A   Clear
5:35 PM 62.6 °F - 32.0 °F 32% 30.19 in 10.0 mi NE 5.8 mph - N/A   Clear
5:55 PM 60.8 °F - 32.0 °F 34% 30.19 in 10.0 mi ENE 3.5 mph - N/A   Clear
6:15 PM 60.8 °F - 32.0 °F 34% 30.19 in 10.0 mi Calm Calm - N/A   Clear
6:35 PM 59.0 °F - 32.0 °F 36% 30.20 in 10.0 mi NE 5.8 mph - N/A   Clear
6:55 PM 57.2 °F - 32.0 °F 38% 30.20 in 10.0 mi NE 5.8 mph - N/A   Clear
7:15 PM 53.6 °F - 32.0 °F 44% 30.21 in 10.0 mi NE 5.8 mph - N/A   Clear
7:35 PM 53.6 °F - 32.0 °F 44% 30.21 in 10.0 mi East 5.8 mph - N/A   Clear
7:55 PM 51.8 °F - 32.0 °F 47% 30.21 in 10.0 mi ENE 5.8 mph - N/A   Clear
8:15 PM 51.8 °F - 32.0 °F 47% 30.21 in 10.0 mi ESE 3.5 mph - N/A   Clear
8:35 PM 55.4 °F - 32.0 °F 41% 30.21 in 10.0 mi ESE 4.6 mph - N/A   Clear
8:55 PM 55.4 °F - 32.0 °F 41% 30.21 in 10.0 mi East 6.9 mph - N/A   Clear
9:15 PM 51.8 °F - 32.0 °F 47% 30.21 in 10.0 mi East 5.8 mph - N/A   Clear
9:35 PM 50.0 °F - 32.0 °F 50% 30.21 in 10.0 mi SE 4.6 mph - N/A   Clear
9:55 PM 51.8 °F - 32.0 °F 47% 30.22 in 10.0 mi ESE 5.8 mph - N/A   Clear
10:15 PM 53.6 °F - 32.0 °F 44% 30.22 in 10.0 mi ESE 5.8 mph - N/A   Clear
10:35 PM 48.2 °F - 32.0 °F 54% 30.22 in 10.0 mi SE 6.9 mph - N/A   Clear
10:55 PM 46.4 °F 42.4 °F 32.0 °F 57% 30.22 in 10.0 mi SSE 8.1 mph - N/A   Clear
11:15 PM 46.4 °F 42.4 °F 32.0 °F 57% 30.21 in 10.0 mi SE 8.1 mph - N/A   Clear
11:35 PM 50.0 °F - 32.0 °F 50% 30.21 in 10.0 mi ESE 8.1 mph - N/A   Clear
11:55 PM 48.2 °F - 32.0 °F 54% 30.22 in 10.0 mi SSE 8.1 mph - N/A   Clear